Location: Unspecified
(51.0000°N, 12.0000°E)
Time: 17:30:44
(UTC+02:00)

ISS - Pass Details

Date: 13 March 2018
Orbit: 402 x 408 km, 51.6° (Epoch: 23 June)

Event Time Altitude Azimuth Distance (km) Brightness Sun altitude
Exits shadow 03:11:12 11° 80° (E) 1,419 -0.4 -30.3°
Drops below altitude 10° 03:11:21 10° 80° (E) 1,484 -0.3 -30.3°
Enters shadow 04:09:01 -66° 272° (W) 12,057 3.6 -22.6°
Maximum altitude 04:44:41 87° 11° (N) 418 -3.9 -17.3°
